Tracking 25710 objects as of 6-Jul-2022
HD Live streaming from Space Station
objects crossing your sky now

FENGYUN 1C DEB

Track FENGYUN 1C DEB now!
10-day predictions


NORAD ID: 31851
Int'l Code: 1999-025CJR
Perigee: 828.8 km
Apogee: 1,161.1 km
Inclination: 98.8 °
Period: 104.9 minutes
Semi major axis: 7365 km
RCS: 0.0112 m2 (small)
Launch date: May 10, 1999
Source: People's Republic of China (PRC)
Launch site: Taiyaun Space Center, China (TSC)

Note: This is SATELLITE DEBRIS
aabbcc
Your satellite tracking list
Your tracking list is empty




NASA's NSSDC Master Catalog

Two Line Element Set (TLE):
1 31851U 99025CJR 22179.58060394  .00001713  00000-0  15720-2 0  9998
2 31851  98.8184 107.8630 0225541  65.9644 296.4932 13.73288874440718
Source of the keplerian elements: AFSPC